Hourly Weather Rupin

Today, 21 April, Wednesday

Time Temperature Precipitation Wind Pressure Humidity
00:00 +9°C° 0 mm 1 mps 749 mmHg 76%
01:00 +8°C° 0 mm 1 mps 749 mmHg 78%
02:00 +7°C° 0 mm 2 mps 749 mmHg 80%
03:00 +7°C° 0 mm 2 mps 748 mmHg 82%
04:00 +6°C° 0 mm 2 mps 748 mmHg 85%
05:00 +7°C° 0.4 mm 2 mps 748 mmHg 85%
06:00 +9°C° 0.4 mm 1 mps 748 mmHg 85%
07:00 +10°C° 0 mm 1 mps 748 mmHg 83%
08:00 +10°C° 0.2 mm 2 mps 748 mmHg 75%
09:00 +13°C° 0.2 mm 2 mps 748 mmHg 68%
10:00 +13°C° 0.2 mm 3 mps 748 mmHg 60%
11:00 +14°C° 0.3 mm 3 mps 748 mmHg 56%
12:00 +14°C° 0.3 mm 3 mps 748 mmHg 52%
13:00 +16°C° 0 mm 3 mps 747 mmHg 50%
14:00 +14°C° 0.1 mm 4 mps 747 mmHg 54%
15:00 +14°C° 0.1 mm 4 mps 747 mmHg 58%
16:00 +14°C° 0.1 mm 4 mps 747 mmHg 62%
17:00 +12°C° 0.1 mm 3 mps 747 mmHg 66%
18:00 +11°C° 0.1 mm 3 mps 747 mmHg 70%
19:00 +10°C° 0.1 mm 3 mps 747 mmHg 75%
20:00 +9°C° 0 mm 3 mps 747 mmHg 76%
21:00 +8°C° 0 mm 3 mps 747 mmHg 76%
22:00 +8°C° 0 mm 2 mps 747 mmHg 77%
23:00 +7°C° 0.1 mm 3 mps 747 mmHg 82%

Tomorrow, 22 April, Thursday

Time Temperature Precipitation Wind Pressure Humidity
00:00 +7°C° 0.1 mm 3 mps 747 mmHg 86%
01:00 +5°C° 0.1 mm 3 mps 748 mmHg 90%
02:00 +5°C° 0.1 mm 4 mps 748 mmHg 89%
03:00 +5°C° 0.1 mm 4 mps 748 mmHg 87%
04:00 +5°C° 0.1 mm 4 mps 748 mmHg 85%
05:00 +3°C° 0.1 mm 5 mps 748 mmHg 81%
06:00 +3°C° 0.1 mm 6 mps 749 mmHg 76%
07:00 +3°C° 0.1 mm 6 mps 749 mmHg 72%
08:00 +4°C° 0 mm 6 mps 749 mmHg 67%
09:00 +5°C° 0 mm 6 mps 749 mmHg 62%
10:00 +6°C° 0 mm 7 mps 750 mmHg 57%
11:00 +6°C° 0.1 mm 7 mps 750 mmHg 55%
12:00 +6°C° 0.1 mm 7 mps 750 mmHg 54%
13:00 +6°C° 0.1 mm 8 mps 750 mmHg 52%
14:00 +6°C° 0.2 mm 8 mps 750 mmHg 57%
15:00 +6°C° 0.2 mm 8 mps 750 mmHg 61%
16:00 +6°C° 0.2 mm 8 mps 750 mmHg 65%
17:00 +5°C° 0.2 mm 6 mps 750 mmHg 68%
18:00 +3°C° 0.2 mm 5 mps 750 mmHg 72%
19:00 +3°C° 0.2 mm 4 mps 751 mmHg 75%
20:00 +1°C° 0 mm 4 mps 751 mmHg 76%
21:00 +1°C° 0 mm 4 mps 751 mmHg 78%
22:00 0°C° 0 mm 5 mps 751 mmHg 80%
23:00 0°C° 0 mm 5 mps 751 mmHg 80%

Day after tomorrow, 23 April, Friday

Time Temperature Precipitation Wind Pressure Humidity
00:00 -1°C° 0 mm 5 mps 751 mmHg 81%
01:00 -1°C° 0 mm 5 mps 751 mmHg 81%
02:00 -1°C° 0 mm 5 mps 751 mmHg 82%
03:00 -1°C° 0 mm 5 mps 752 mmHg 83%
04:00 -1°C° 0 mm 4 mps 752 mmHg 84%
05:00 0°C° 0 mm 5 mps 752 mmHg 80%
06:00 +1°C° 0 mm 5 mps 752 mmHg 75%
07:00 +2°C° 0 mm 6 mps 753 mmHg 71%
08:00 +3°C° 0 mm 6 mps 753 mmHg 62%
09:00 +4°C° 0 mm 6 mps 753 mmHg 54%
10:00 +7°C° 0 mm 6 mps 753 mmHg 46%
11:00 +7°C° 0.2 mm 6 mps 753 mmHg 49%
12:00 +7°C° 0.2 mm 6 mps 753 mmHg 51%
13:00 +7°C° 0.2 mm 6 mps 753 mmHg 54%
14:00 +4°C° 1 mm 6 mps 753 mmHg 65%
15:00 +3°C° 1 mm 5 mps 753 mmHg 76%
16:00 +1°C° 1 mm 5 mps 753 mmHg 87%
17:00 +1°C° 0.2 mm 5 mps 754 mmHg 84%
18:00 0°C° 0.2 mm 4 mps 754 mmHg 80%
19:00 0°C° 0.2 mm 4 mps 755 mmHg 77%
20:00 -1°C° 0 mm 4 mps 755 mmHg 80%
21:00 -1°C° 0 mm 3 mps 755 mmHg 83%
22:00 -2°C° 0 mm 3 mps 755 mmHg 86%
23:00 -2°C° 0 mm 3 mps 755 mmHg 86%

24 April, Saturday

Time Temperature Precipitation Wind Pressure Humidity
00:00 -2°C° 0 mm 3 mps 756 mmHg 85%
01:00 -2°C° 0 mm 3 mps 756 mmHg 85%
02:00 -2°C° 0 mm 3 mps 756 mmHg 85%
03:00 -2°C° 0 mm 3 mps 756 mmHg 85%
04:00 -2°C° 0 mm 3 mps 756 mmHg 85%
05:00 -1°C° 0 mm 4 mps 756 mmHg 79%
06:00 0°C° 0 mm 4 mps 756 mmHg 72%
07:00 +2°C° 0 mm 5 mps 756 mmHg 66%
08:00 +3°C° 0 mm 5 mps 756 mmHg 57%
09:00 +5°C° 0 mm 6 mps 756 mmHg 49%
10:00 +7°C° 0 mm 6 mps 756 mmHg 40%
11:00 +7°C° 0 mm 6 mps 756 mmHg 41%
12:00 +7°C° 0 mm 6 mps 756 mmHg 42%
13:00 +8°C° 0 mm 7 mps 755 mmHg 43%
14:00 +7°C° 0.2 mm 6 mps 755 mmHg 50%
15:00 +6°C° 0.2 mm 5 mps 755 mmHg 56%
16:00 +6°C° 0.2 mm 5 mps 755 mmHg 62%
17:00 +4°C° 0.3 mm 4 mps 755 mmHg 68%
18:00 +3°C° 0.3 mm 4 mps 756 mmHg 74%
19:00 +1°C° 0.3 mm 3 mps 756 mmHg 80%
20:00 0°C° 0 mm 3 mps 756 mmHg 80%
21:00 -1°C° 0 mm 3 mps 756 mmHg 80%
22:00 -2°C° 0 mm 3 mps 756 mmHg 80%
23:00 -2°C° 0 mm 3 mps 757 mmHg 82%

25 April, Sunday

Time Temperature Precipitation Wind Pressure Humidity
00:00 -2°C° 0 mm 3 mps 757 mmHg 84%
01:00 -4°C° 0 mm 3 mps 757 mmHg 87%
02:00 -3°C° 0 mm 4 mps 757 mmHg 88%
03:00 -3°C° 0 mm 4 mps 757 mmHg 89%
04:00 -3°C° 0 mm 4 mps 757 mmHg 91%
05:00 -2°C° 0 mm 4 mps 757 mmHg 85%
06:00 0°C° 0 mm 4 mps 757 mmHg 78%
07:00 +1°C° 0 mm 5 mps 757 mmHg 72%
08:00 +2°C° 0.1 mm 5 mps 757 mmHg 66%
09:00 +3°C° 0.1 mm 6 mps 757 mmHg 59%
10:00 +4°C° 0.1 mm 7 mps 757 mmHg 52%
11:00 +5°C° 0.1 mm 7 mps 756 mmHg 49%
12:00 +6°C° 0.1 mm 7 mps 756 mmHg 46%
13:00 +6°C° 0.1 mm 8 mps 755 mmHg 42%
14:00 +6°C° 0 mm 7 mps 755 mmHg 45%
15:00 +6°C° 0 mm 7 mps 755 mmHg 47%
16:00 +5°C° 0 mm 7 mps 755 mmHg 49%
17:00 +4°C° 0 mm 6 mps 756 mmHg 52%
18:00 +2°C° 0 mm 5 mps 756 mmHg 55%
19:00 0°C° 0 mm 4 mps 756 mmHg 58%
20:00 0°C° 0 mm 3 mps 756 mmHg 61%
21:00 -1°C° 0 mm 3 mps 756 mmHg 64%
22:00 -2°C° 0 mm 2 mps 756 mmHg 66%
23:00 -2°C° 0 mm 2 mps 756 mmHg 65%

26 April, Monday

Time Temperature Precipitation Wind Pressure Humidity
00:00 -1°C° 0 mm 2 mps 755 mmHg 64%
01:00 -1°C° 0 mm 2 mps 755 mmHg 62%
02:00 -2°C° 0 mm 2 mps 755 mmHg 66%
03:00 -2°C° 0 mm 2 mps 754 mmHg 69%
04:00 -2°C° 0 mm 3 mps 754 mmHg 72%
05:00 -1°C° 0.1 mm 3 mps 754 mmHg 70%
06:00 +2°C° 0.1 mm 2 mps 754 mmHg 68%
07:00 +3°C° 0.1 mm 2 mps 753 mmHg 66%
08:00 +3°C° 0.1 mm 3 mps 753 mmHg 67%
09:00 +4°C° 0.1 mm 3 mps 753 mmHg 68%
10:00 +5°C° 0.1 mm 3 mps 753 mmHg 68%
11:00 +7°C° 0.3 mm 3 mps 752 mmHg 63%
12:00 +8°C° 0.3 mm 3 mps 752 mmHg 59%
13:00 +8°C° 0.3 mm 3 mps 752 mmHg 54%
14:00 +8°C° 0.1 mm 4 mps 752 mmHg 51%
15:00 +8°C° 0.1 mm 4 mps 752 mmHg 47%
16:00 +8°C° 0.1 mm 4 mps 752 mmHg 44%
17:00 +7°C° 0 mm 3 mps 752 mmHg 52%
18:00 +4°C° 0 mm 3 mps 752 mmHg 60%
19:00 +2°C° 0 mm 3 mps 752 mmHg 68%
20:00 +2°C° 0 mm 2 mps 752 mmHg 72%
21:00 +1°C° 0 mm 2 mps 753 mmHg 77%
22:00 -1°C° 0 mm 2 mps 753 mmHg 82%
23:00 -1°C° 0 mm 2 mps 753 mmHg 84%
Show more